Defiance, OH

4:48 PM EDT on May 24, 2017 (GMT -0400)
Defiance Memorial

Weather History for KDFI - December, 2013

Change the Weather History Date:

Tuesday, December 17, 2013

  Actual Average Record
Temperature  
Mean Temperature 22 °F -  
Max Temperature 26 °F 35 °F 64 °F (1984)
Min Temperature 17 °F 21 °F -13 °F (1951)
Degree Days  
Heating Degree Days 44    
Moisture  
Dew Point 18 °F    
Average Humidity 85    
Maximum Humidity 93    
Minimum Humidity 78    
Precipitation  
Precipitation 0.02 in - - ()
Sea Level Pressure  
Sea Level Pressure 30.01 in    
Wind  
Wind Speed 6 mph (SW)    
Max Wind Speed 16 mph    
Max Gust Speed 22 mph    
Visibility 4 miles    
Events Fog , Snow    
Averages and records for this station are not official NWS values.
T = Trace of Precipitation, MM = Missing Value Source: NWS Daily Summary

Daily Weather History Graph

Daily Weather History Graph

Search for Another Location

Airport or City:

Trip Planner

Search our weather history database for the weather conditions in past years. The results will help you decide how hot, cold, wet, or windy it might be!

Date:

Astronomy

Dec. 17, 2013 Rise Set
Actual Time 7:58 AM EST 5:09 PM EST
Civil Twilight 7:26 AM EST 5:41 PM EST
Nautical Twilight 6:51 AM EST 6:16 PM EST
Astronomical Twilight 6:18 AM EST 6:49 PM EST
Moon 5:49 PM EST (12/17) 7:53 AM EST (12/17)
Length of Visible Light 10h 14m
Length of Day
9h 11m
Full, 100% of the Moon is Illuminated
Dec 17
Full
Dec 25
Last Quarter
Jan 1
New
Jan 7
First Quarter
Jan 15
Full

Hourly Weather History & Observations

Time (EST) Temp. Windchill Dew Point Humidity Pressure Visibility Wind Dir Wind Speed Gust Speed Precip Events Conditions
12:09 AM 17.6 °F - 15.8 °F 93% 29.98 in 2.5 mi Calm Calm - N/A   Overcast
12:53 AM 18.0 °F 12.7 °F 16.0 °F 92% 30.03 in 2.5 mi Variable 3.5 mph - 0.00 in   Overcast
1:06 AM 17.6 °F 12.3 °F 15.8 °F 93% 30.00 in 3.0 mi Variable 3.5 mph - N/A   Overcast
1:53 AM 18.0 °F 12.7 °F 15.1 °F 88% 30.02 in 3.0 mi Variable 3.5 mph - N/A   Overcast
2:53 AM 19.0 °F 11.1 °F 16.0 °F 88% 30.03 in 4.0 mi WSW 5.8 mph - N/A   Overcast
3:11 AM 19.4 °F 12.8 °F 15.8 °F 86% 29.99 in 4.0 mi West 4.6 mph - N/A   Overcast
3:53 AM 19.0 °F 12.3 °F 16.0 °F 88% 30.03 in 5.0 mi Variable 4.6 mph - N/A   Overcast
4:53 AM 19.9 °F 13.4 °F 17.1 °F 89% 30.04 in 5.0 mi WSW 4.6 mph - N/A   Overcast
5:53 AM 21.0 °F 13.4 °F 17.1 °F 85% 30.03 in 5.0 mi West 5.8 mph - N/A   Overcast
6:53 AM 21.9 °F 13.4 °F 18.0 °F 85% 30.06 in 5.0 mi WSW 6.9 mph - N/A   Overcast
7:53 AM 21.9 °F 15.7 °F 18.0 °F 85% 30.06 in 5.0 mi Variable 4.6 mph - N/A   Overcast
8:53 AM 21.0 °F 14.6 °F 17.1 °F 85% 30.06 in 4.0 mi WSW 4.6 mph - N/A   Overcast
9:53 AM 21.0 °F 13.4 °F 17.1 °F 85% 30.05 in 4.0 mi SW 5.8 mph - N/A   Overcast
10:53 AM 21.9 °F 12.5 °F 18.0 °F 85% 30.06 in 4.0 mi SW 8.1 mph - N/A   Overcast
11:53 AM 21.9 °F 9.8 °F 18.0 °F 85% 30.02 in 2.5 mi SW 12.7 mph - N/A   Overcast
12:14 PM 21.2 °F 7.3 °F 17.6 °F 86% 29.97 in 3.0 mi SSW 16.1 mph 21.9 mph N/A   Overcast
12:53 PM 23.0 °F 10.6 °F 19.0 °F 85% 29.99 in 4.0 mi SSW 13.8 mph 20.7 mph N/A   Overcast
1:53 PM 23.0 °F 10.6 °F 18.0 °F 81% 29.98 in 5.0 mi SW 13.8 mph 20.7 mph N/A   Haze
2:21 PM 23.0 °F 11.1 °F 17.6 °F 80% 29.94 in 2.0 mi SW 12.7 mph - 0.00 in Snow Light Snow
2:26 PM 23.0 °F 11.1 °F 17.6 °F 80% 29.94 in 0.8 mi SW 12.7 mph - 0.00 in Snow Light Snow
2:38 PM 23.0 °F 13.9 °F 19.4 °F 86% 29.95 in 0.2 mi SW 8.1 mph 17.3 mph 0.01 in Fog , Snow Heavy Snow
2:45 PM 23.0 °F 13.1 °F 19.4 °F 86% 29.95 in 0.2 mi SW 9.2 mph - 0.01 in Fog , Snow Snow
2:53 PM 23.0 °F 13.1 °F 19.0 °F 85% 29.98 in 0.5 mi SW 9.2 mph - 0.01 in Fog , Snow Snow
3:04 PM 23.0 °F 11.7 °F 19.4 °F 86% 29.95 in 1.0 mi SW 11.5 mph - 0.00 in Snow Light Snow
3:53 PM 24.1 °F 17.0 °F 19.9 °F 84% 29.98 in 1.5 mi WSW 5.8 mph - 0.01 in Snow Light Snow
3:59 PM 24.8 °F 17.9 °F 19.4 °F 80% 29.95 in 2.5 mi WSW 5.8 mph - 0.00 in Snow Light Snow
4:07 PM 24.8 °F 16.9 °F 19.4 °F 80% 29.95 in 4.0 mi WSW 6.9 mph - 0.00 in   Haze
4:53 PM 25.0 °F 17.1 °F 19.0 °F 78% 30.00 in 5.0 mi WSW 6.9 mph - 0.00 in   Haze
5:53 PM 25.0 °F 16.3 °F 19.9 °F 81% 30.01 in 6.0 mi SW 8.1 mph - N/A   Haze
6:07 PM 24.8 °F 16.1 °F 19.4 °F 80% 29.98 in 6.0 mi SW 8.1 mph - N/A   Haze
6:53 PM 25.0 °F 18.1 °F 19.9 °F 81% 30.03 in 6.0 mi SW 5.8 mph - N/A   Haze
7:53 PM 26.1 °F 20.5 °F 21.0 °F 81% 30.04 in 6.0 mi WSW 4.6 mph - N/A   Haze
8:53 PM 25.0 °F 19.3 °F 19.9 °F 81% 30.05 in 6.0 mi WSW 4.6 mph - N/A   Haze
9:53 PM 21.9 °F 17.2 °F 19.0 °F 89% 30.07 in 5.0 mi SSW 3.5 mph - N/A   Partly Cloudy
10:53 PM 23.0 °F 15.8 °F 19.0 °F 85% 30.07 in 4.0 mi SW 5.8 mph - N/A   Partly Cloudy
11:53 PM 24.1 °F 15.2 °F 19.9 °F 84% 30.08 in 5.0 mi SW 8.1 mph - N/A   Clear